Ithaca, NY

10:03 AM EDT on August 29, 2016 (GMT -0400)
Tompkins County

Weather History for KITH - January, 2012

Change the Weather History Date:

Wednesday, January 4, 2012

  Actual Average Record
Temperature  
Mean Temperature 12 °F -  
Max Temperature 24 °F 32 °F 60 °F (2000)
Min Temperature 0 °F 16 °F -19 °F (1981)
Degree Days  
Heating Degree Days 53    
Moisture  
Dew Point 4 °F    
Average Humidity 70    
Maximum Humidity 85    
Minimum Humidity 55    
Precipitation  
Precipitation 0.00 in - - ()
Sea Level Pressure  
Sea Level Pressure 30.08 in    
Wind  
Wind Speed 4 mph (South)    
Max Wind Speed 12 mph    
Max Gust Speed -    
Visibility 10 miles    
Events Snow    
Averages and records for this station are not official NWS values.
T = Trace of Precipitation, MM = Missing Value Source: NWS Daily Summary

Daily Weather History Graph

Daily Weather History Graph

Search for Another Location

Airport or City:

Trip Planner

Search our weather history database for the weather conditions in past years. The results will help you decide how hot, cold, wet, or windy it might be!

Date:

Astronomy

Jan. 04, 2012 Rise Set
Actual Time 7:35 AM EST 4:45 PM EST
Civil Twilight 7:03 AM EST 5:17 PM EST
Nautical Twilight 6:28 AM EST 5:52 PM EST
Astronomical Twilight 5:54 AM EST 6:27 PM EST
Moon 1:08 PM EST (1/4) 3:20 AM EST (1/4)
Length of Visible Light 10h 13m
Length of Day
9h 10m
Waxing Gibbous, 80% of the Moon is Illuminated
Jan 4
Waxing Gibbous
Jan 9
Full
Jan 16
Last Quarter
Jan 23
New
Jan 30
First Quarter

Hourly Weather History & Observations

Time (EST) Temp. Windchill Dew Point Humidity Pressure Visibility Wind Dir Wind Speed Gust Speed Precip Events Conditions
12:26 AM 1.4 °F -6.2 °F -2.2 °F 85% 30.16 in 10.0 mi West 3.5 mph - N/A   Mostly Cloudy
12:40 AM 1.4 °F - -2.2 °F 85% 30.16 in 10.0 mi Calm Calm - 0.00 in Snow Light Snow
12:56 AM 0.1 °F - -4.0 °F 83% 30.25 in 10.0 mi Calm Calm - 0.00 in Snow Light Snow
1:16 AM 1.4 °F -8.3 °F -2.2 °F 85% 30.18 in 10.0 mi West 4.6 mph - 0.00 in   Overcast
1:56 AM 2.1 °F -5.4 °F -2.9 °F 79% 30.25 in 10.0 mi West 3.5 mph - 0.00 in   Mostly Cloudy
2:03 AM 1.4 °F -6.2 °F -2.2 °F 85% 30.17 in 10.0 mi West 3.5 mph - N/A   Scattered Clouds
2:56 AM 1.0 °F - -2.9 °F 83% 30.25 in 10.0 mi Calm Calm - N/A   Clear
3:56 AM 0.1 °F - -4.0 °F 83% 30.22 in 10.0 mi Calm Calm - N/A   Clear
4:56 AM 4.1 °F -5.1 °F -0.9 °F 80% 30.23 in 10.0 mi SSW 4.6 mph - N/A   Scattered Clouds
5:56 AM 5.0 °F -2.1 °F -0.9 °F 76% 30.22 in 10.0 mi SSE 3.5 mph - N/A   Scattered Clouds
6:19 AM 3.2 °F - -2.2 °F 78% 30.14 in 10.0 mi Calm Calm - N/A   Scattered Clouds
6:56 AM 4.1 °F -3.2 °F -2.9 °F 73% 30.22 in 10.0 mi South 3.5 mph - N/A   Mostly Cloudy
8:56 AM 7.2 °F -4.3 °F 1.0 °F 76% 30.19 in 10.0 mi South 6.9 mph - N/A   Mostly Cloudy
9:56 AM 10.0 °F -0.9 °F 3.0 °F 73% 30.17 in 10.0 mi SSE 6.9 mph - N/A   Mostly Cloudy
10:56 AM 15.1 °F 1.8 °F 5.0 °F 64% 30.11 in 10.0 mi South 11.5 mph - N/A   Mostly Cloudy
11:56 AM 17.1 °F 5.8 °F 6.1 °F 62% 30.06 in 10.0 mi South 9.2 mph - N/A   Overcast
12:56 PM 19.0 °F 6.8 °F 7.2 °F 60% 30.01 in 10.0 mi South 11.5 mph - N/A   Mostly Cloudy
1:56 PM 21.0 °F 12.4 °F 8.1 °F 57% 29.97 in 10.0 mi SE 6.9 mph - N/A   Mostly Cloudy
2:56 PM 22.1 °F 12.8 °F 9.1 °F 58% 29.95 in 10.0 mi South 8.1 mph - N/A   Scattered Clouds
3:56 PM 21.0 °F 13.4 °F 7.2 °F 55% 29.95 in 10.0 mi South 5.8 mph - N/A   Scattered Clouds
4:56 PM 19.0 °F 10.0 °F 8.1 °F 62% 29.95 in 10.0 mi South 6.9 mph - N/A   Scattered Clouds
5:56 PM 21.0 °F 11.4 °F 9.1 °F 60% 29.95 in 10.0 mi SSE 8.1 mph - N/A   Overcast
6:56 PM 20.1 °F 12.3 °F 9.1 °F 62% 29.96 in 10.0 mi South 5.8 mph - N/A   Mostly Cloudy
7:56 PM 22.1 °F 13.7 °F 10.0 °F 60% 29.94 in 10.0 mi South 6.9 mph - N/A   Overcast
8:56 PM 22.1 °F 13.7 °F 10.0 °F 60% 29.95 in 10.0 mi South 6.9 mph - N/A   Overcast
9:56 PM 23.0 °F 15.8 °F 11.1 °F 60% 29.94 in 10.0 mi South 5.8 mph - N/A   Overcast
10:56 PM 23.0 °F 17.0 °F 12.0 °F 63% 29.91 in 10.0 mi SSE 4.6 mph - N/A   Overcast
11:07 PM 24.8 °F 17.9 °F 12.2 °F 59% 29.85 in 10.0 mi SSE 5.8 mph - N/A   Overcast
11:56 PM 24.1 °F 18.2 °F 14.0 °F 65% 29.89 in 10.0 mi South 4.6 mph - 0.00 in Snow Light Snow